Flag for Switzerland Weather past 2 weeks in Allschwil, Basel-Land, Switzerland

Now
44 °F

Overcast.


Feels Like: 40 °F
Forecast: 36 / 42 °F
Wind: 7 mph from Northwest

Location: Bale-Mulhouse

Current Time: Mar 4, 2015 at 1:07:17 PM

Latest Report: Mar 4, 2015 at 12:00 PM


Visibility: 19 mi

Pressure: 30.39 "Hg

Humidity: 53%

Dew point: 28 °F

Location of AllschwilLocation

Historic Weather in Allschwil — Graph

°F

Allschwil temperature yesterday

Maximum temperature yesterday: 53 °F (at 3:00 PM)
Minimum temperature yesterday: 33 °F (at 7:00 AM)
Average temperature yesterday: 43 °F

Past Weeks' High & Low Weather Summary

 TemperatureHumidityPressure
High60 °F (Feb 20, 4:00 PM)99% (Feb 28, 9:00 AM)30.73 "Hg (Feb 28, 9:00 AM)
Low28 °F (Feb 19, 8:00 AM)19% (Feb 20, 5:00 PM)29.59 "Hg (Feb 21, 7:00 AM)
Average40 °F78%30.08 "Hg
* Reported Feb 17 11:00 AM — Mar 4 11:00 AM, Allschwil, Weather by CustomWeather, © 2015

Note: Actual official high and low records may vary slightly from our data, if they occured in-between our weather recording intervals... More about our weather records

Advertising

Allschwil weather history for previous 24 hours

 ConditionsComfort  
Time TempWeatherWind HumidityBarometerVisibility
11:00 AM
Wed, Mar 4
43 °FOvercast.6 mph74%30.39 "Hg19 mi
10:00 AM42 °FOvercast.7 mph77%30.38 "Hg19 mi
9:00 AM39 °FOvercast.3 mph85%30.37 "Hg19 mi
8:00 AM38 °FOvercast.5 mph85%30.35 "Hg37 mi
7:00 AM38 °FOvercast.9 mph85%30.33 "Hg12 mi
6:00 AM38 °FOvercast.10 mph83%30.32 "Hg12 mi
5:00 AM39 °FOvercast.13 mph83%30.32 "Hg12 mi
4:00 AM39 °FOvercast.10 mph83%30.30 "Hg37 mi
3:00 AM40 °FLight rain. Overcast.8 mph87%30.30 "Hg28 mi
2:00 AM41 °FLight rain. Overcast.13 mph89%30.28 "Hg12 mi
1:00 AM44 °FLight rain. Overcast.13 mph82%30.25 "Hg16 mi
12:00 AM47 °FLight rain. Overcast.9 mph62%30.22 "Hg12 mi
11:00 PM
Tue, Mar 3
46 °FOvercast.3 mph62%30.21 "Hg25 mi
10:00 PM46 °FOvercast.3 mph59%30.21 "Hg25 mi
9:00 PM46 °FOvercast.3 mph60%30.21 "Hg25 mi
8:00 PM46 °FOvercast.2 mph61%30.21 "Hg25 mi
7:00 PM48 °FPassing clouds.6 mph57%30.19 "Hg25 mi
6:00 PM50 °FPartly sunny.10 mph50%30.18 "Hg25 mi
5:00 PM52 °FPartly sunny.9 mph50%30.17 "Hg25 mi
4:00 PM53 °FPartly sunny.14 mph47%30.17 "Hg25 mi
3:00 PM53 °FPartly sunny.15 mph48%30.17 "Hg25 mi
2:00 PM53 °FPartly sunny.13 mph56%30.19 "Hg25 mi
1:00 PM51 °FPartly sunny.12 mph53%30.22 "Hg25 mi
Weather by CustomWeather, © 2015

See weather overviewHow to use our weather pages